 day,  time,  air_temp(C),  RH(%),  ground_temp10cm(C),  ground_temp20cm(C),  ground_temp40cm(C),  precipitation(mm/h),  Solar_Radiation(MJ/m2h),  lack, 
 09/05/01, 01:00,   4.4, -9999,   7.8,   8.3,   7.1,   0.0,  0.00, 
 09/05/01, 02:00,   3.9, -9999,   7.5,   8.2,   7.2,   0.0,  0.00, 
 09/05/01, 03:00,   3.2, -9999,   7.2,   8.1,   7.2,   0.0,  0.00, 
 09/05/01, 04:00,   3.6, -9999,   7.1,   8.0,   7.2,   0.0,  0.00, 
 09/05/01, 05:00,   3.3, -9999,   6.8,   7.9,   7.2,   0.0,  0.00, 
 09/05/01, 06:00,   4.4, -9999,   6.5,   7.8,   7.3,   0.0,  0.09, 
 09/05/01, 07:00,   6.6, -9999,   6.3,   7.7,   7.2,   0.0,  0.59, 
 09/05/01, 08:00,   9.3, -9999,   6.5,   7.6,   7.2,   0.0,  1.40, 
 09/05/01, 09:00,  10.9, -9999,   7.1,   7.5,   7.3,   0.0,  2.30, 
 09/05/01, 10:00,  11.9, -9999,   7.7,   7.5,   7.3,   0.0,  2.68, 
 09/05/01, 11:00,  14.1, -9999,   8.6,   7.4,   7.3,   0.0,  3.02, 
 09/05/01, 12:00,  14.5, -9999,   9.8,   7.5,   7.3,   0.0,  3.22, 
 09/05/01, 13:00,  16.9, -9999,  10.9,   7.6,   7.3,   0.0,  3.54, 
 09/05/01, 14:00,  17.8, -9999,  11.3,   7.8,   7.3,   0.0,  3.45, 
 09/05/01, 15:00,  18.0, -9999,  11.2,   8.1,   7.3,   0.0,  2.98, 
 09/05/01, 16:00,  17.3, -9999,  11.3,   8.3,   7.3,   0.0,  2.29, 
 09/05/01, 17:00,  16.0, -9999,  11.4,   8.5,   7.3,   0.0,  1.49, 
 09/05/01, 18:00,  14.1, -9999,  11.3,   8.7,   7.3,   0.0,  0.66, 
 09/05/01, 19:00,  11.3, -9999,  11.1,   8.8,   7.4,   0.0,  0.11, 
 09/05/01, 20:00,   8.9, -9999,  10.7,   8.9,   7.4,   0.0,  0.00, 
 09/05/01, 21:00,   8.3, -9999,  10.4,   9.0,   7.4,   0.0,  0.00, 
 09/05/01, 22:00,   7.8, -9999,  10.0,   9.1,   7.4,   0.0,  0.00, 
 09/05/01, 23:00,   7.8, -9999,   9.5,   9.1,   7.4,   0.0,  0.00, 
 09/05/02, 00:00,   7.0, -9999,   9.2,   9.1,   7.5,   0.0,  0.00, 
 09/05/02, 01:00,   5.6, -9999,   8.9,   9.0,   7.5,   0.0,  0.00, 
 09/05/02, 02:00,   8.6, -9999,   8.6,   8.9,   7.5,   0.0,  0.00, 
 09/05/02, 03:00,   7.7, -9999,   8.3,   8.9,   7.5,   0.0,  0.00, 
 09/05/02, 04:00,   7.4, -9999,   8.1,   8.8,   7.6,   0.0,  0.00, 
 09/05/02, 05:00,   6.2, -9999,   7.9,   8.7,   7.6,   0.0,  0.00, 
 09/05/02, 06:00,   6.5, -9999,   7.6,   8.6,   7.6,   0.0,  0.07, 
 09/05/02, 07:00,   9.3, -9999,   7.4,   8.5,   7.5,   0.0,  0.75, 
 09/05/02, 08:00,  10.8, -9999,   7.6,   8.4,   7.7,   0.0,  1.58, 
 09/05/02, 09:00,  13.1, -9999,   8.1,   8.3,   7.7,   0.0,  2.32, 
 09/05/02, 10:00,  16.0, -9999,   8.9,   8.3,   7.7,   0.0,  2.94, 
 09/05/02, 11:00,  17.3, -9999,  10.1,   8.3,   7.7,   0.0,  3.37, 
 09/05/02, 12:00,  19.0, -9999,  11.5,   8.3,   7.7,   0.0,  3.62, 
 09/05/02, 13:00,  19.4, -9999,  12.8,   8.5,   7.7,   0.0,  3.59, 
 09/05/02, 14:00,  18.9, -9999,  13.2,   8.7,   7.7,   0.0,  3.09, 
 09/05/02, 15:00,  19.1, -9999,  13.1,   9.0,   7.7,   0.0,  2.66, 
 09/05/02, 16:00,  18.1, -9999,  13.0,   9.3,   7.7,   0.0,  2.25, 
 09/05/02, 17:00,  15.5, -9999,  13.2,   9.6,   7.7,   0.0,  1.54, 
 09/05/02, 18:00,  14.4, -9999,  12.8,   9.8,   7.8,   0.0,  0.70, 
 09/05/02, 19:00,  11.8, -9999,  12.4,   9.9,   7.8,   0.0,  0.06, 
 09/05/02, 20:00,   8.8, -9999,  11.9,  10.0,   7.8,   0.0,  0.00, 
 09/05/02, 21:00,   9.0, -9999,  11.5,  10.1,   7.8,   0.0,  0.00, 
 09/05/02, 22:00,   8.5, -9999,  11.0,  10.1,   7.8,   0.0,  0.00, 
 09/05/02, 23:00,   7.3, -9999,  10.6,  10.1,   7.9,   0.0,  0.00, 
 09/05/03, 00:00,   6.5, -9999,  10.2,  10.1,   7.9,   0.0,  0.00, 
 09/05/03, 01:00,   6.4, -9999,   9.9,  10.0,   8.0,   0.0,  0.00, 
 09/05/03, 02:00,   7.0, -9999,   9.6,   9.9,   8.0,   0.0,  0.00, 
 09/05/03, 03:00,   6.1, -9999,   9.3,   9.8,   8.0,   0.0,  0.00, 
 09/05/03, 04:00,   6.1, -9999,   9.1,   9.7,   8.0,   0.0,  0.00, 
 09/05/03, 05:00,   7.4, -9999,   8.9,   9.6,   8.1,   0.0,  0.00, 
 09/05/03, 06:00,   7.5, -9999,   8.7,   9.5,   8.1,   0.0,  0.07, 
 09/05/03, 07:00,  10.2, -9999,   8.5,   9.4,   8.1,   0.0,  0.62, 
 09/05/03, 08:00,  11.6, -9999,   8.7,   9.3,   8.2,   0.0,  1.31, 
 09/05/03, 09:00,  13.7, -9999,   9.2,   9.2,   8.2,   0.0,  2.14, 
 09/05/03, 10:00,  14.7, -9999,   9.8,   9.2,   8.2,   0.0,  2.83, 
 09/05/03, 11:00,  15.8, -9999,  10.8,   9.2,   8.2,   0.0,  2.80, 
 09/05/03, 12:00,  16.2, -9999,  11.7,   9.2,   8.2,   0.0,  2.27, 
 09/05/03, 13:00,  16.7, -9999,  12.3,   9.3,   8.2,   0.0,  2.32, 
 09/05/03, 14:00,  16.7, -9999,  12.7,   9.5,   8.2,   0.0,  2.29, 
 09/05/03, 15:00,  15.7, -9999,  13.0,   9.7,   8.2,   0.0,  1.90, 
 09/05/03, 16:00,  14.6, -9999,  13.1,   9.9,   8.2,   0.0,  1.29, 
 09/05/03, 17:00,  14.1, -9999,  13.0,  10.1,   8.3,   0.0,  0.77, 
 09/05/03, 18:00,  12.4, -9999,  12.8,  10.2,   8.3,   0.0,  0.31, 
 09/05/03, 19:00,  10.9, -9999,  12.6,  10.3,   8.3,   0.0,  0.02, 
 09/05/03, 20:00,  10.4, -9999,  12.2,  10.4,   8.3,   0.0,  0.00, 
 09/05/03, 21:00,   9.4, -9999,  11.9,  10.5,   8.3,   0.0,  0.00, 
 09/05/03, 22:00,   9.0, -9999,  11.6,  10.5,   8.3,   0.0,  0.00, 
 09/05/03, 23:00,   8.6, -9999,  11.3,  10.5,   8.4,   0.0,  0.00, 
 09/05/04, 00:00,   8.3, -9999,  11.0,  10.5,   8.4,   0.0,  0.00, 
 09/05/04, 01:00,   8.2, -9999,  10.7,  10.4,   8.4,   0.0,  0.00, 
 09/05/04, 02:00,   8.0, -9999,  10.5,  10.4,   8.5,   0.0,  0.00, 
 09/05/04, 03:00,   7.7, -9999,  10.3,  10.3,   8.5,   0.0,  0.00, 
 09/05/04, 04:00,   7.4, -9999,  10.1,  10.3,   8.5,   0.0,  0.00, 
 09/05/04, 05:00,   7.2, -9999,   9.9,  10.2,   8.4,   0.0,  0.00, 
 09/05/04, 06:00,   8.0, -9999,   9.7,  10.1,   8.4,   0.0,  0.07, 
 09/05/04, 07:00,   8.7, -9999,   9.6,  10.0,   8.5,   0.0,  0.38, 
 09/05/04, 08:00,   9.5, -9999,   9.7,  10.0,   8.6,   0.0,  0.84, 
 09/05/04, 09:00,  12.0, -9999,   9.9,   9.9,   8.5,   0.0,  1.21, 
 09/05/04, 10:00,  12.2, -9999,  10.2,   9.8,   8.6,   0.0,  1.63, 
 09/05/04, 11:00,  11.8, -9999,  10.6,   9.8,   8.6,   0.0,  1.52, 
 09/05/04, 12:00,  13.0, -9999,  11.0,   9.8,   8.7,   0.0,  1.35, 
 09/05/04, 13:00,  12.6, -9999,  11.4,   9.9,   8.7,   0.0,  1.44, 
 09/05/04, 14:00,  12.9, -9999,  11.6,   9.9,   8.7,   0.0,  1.21, 
 09/05/04, 15:00,  13.3, -9999,  11.8,  10.0,   8.7,   0.0,  1.09, 
 09/05/04, 16:00,  11.6, -9999,  11.9,  10.1,   8.7,   0.0,  0.83, 
 09/05/04, 17:00,  11.6, -9999,  11.9,  10.2,   8.7,   0.0,  0.59, 
 09/05/04, 18:00,  11.3, -9999,  11.8,  10.3,   8.7,   0.0,  0.25, 
 09/05/04, 19:00,   9.9, -9999,  11.6,  10.3,   8.7,   0.0,  0.01, 
 09/05/04, 20:00,   8.5, -9999,  11.4,  10.4,   8.7,   0.0,  0.00, 
 09/05/04, 21:00,   7.6, -9999,  11.1,  10.4,   8.6,   0.0,  0.00, 
 09/05/04, 22:00,   7.9, -9999,  10.8,  10.4,   8.7,   0.0,  0.00, 
 09/05/04, 23:00,   8.3, -9999,  10.5,  10.4,   8.7,   0.0,  0.00, 
 09/05/05, 00:00,   8.2, -9999,  10.3,  10.3,   8.8,   0.0,  0.00, 
 09/05/05, 01:00,   8.3, -9999,  10.1,  10.3,   8.8,   0.0,  0.00, 
 09/05/05, 02:00,   8.3, -9999,  10.0,  10.2,   8.8,   0.0,  0.00, 
 09/05/05, 03:00,   8.2, -9999,   9.9,  10.1,   8.8,   0.0,  0.00, 
 09/05/05, 04:00,   8.2, -9999,   9.8,  10.1,   8.8,   0.0,  0.00, 
 09/05/05, 05:00,   6.5, -9999,   9.7,  10.0,   8.8,   0.0,  0.00, 
 09/05/05, 06:00,   6.4, -9999,   9.5,  10.0,   8.7,   0.0,  0.07, 
 09/05/05, 07:00,   9.5, -9999,   9.3,   9.9,   8.9,   0.0,  0.73, 
 09/05/05, 08:00,  10.7, -9999,   9.4,   9.8,   8.9,   0.0,  1.43, 
 09/05/05, 09:00,  11.9, -9999,   9.9,   9.8,   8.9,   0.0,  1.83, 
 09/05/05, 10:00,  12.1, -9999,  10.3,   9.7,   8.9,   0.0,  1.34, 
 09/05/05, 11:00,  13.3, -9999,  10.7,   9.7,   8.9,   0.0,  1.18, 
 09/05/05, 12:00,  13.7, -9999,  11.0,   9.8,   8.9,   0.0,  1.54, 
 09/05/05, 13:00,  14.7, -9999,  11.4,   9.8,   8.9,   0.0,  1.53, 
 09/05/05, 14:00,  14.6, -9999,  11.7,   9.9,   8.9,   0.0,  1.09, 
 09/05/05, 15:00,  14.0, -9999,  11.8,  10.0,   8.9,   0.0,  0.81, 
 09/05/05, 16:00,  13.4, -9999,  11.9,  10.1,   8.9,   0.0,  0.56, 
 09/05/05, 17:00,  12.4, -9999,  11.8,  10.2,   8.9,   0.0,  0.30, 
 09/05/05, 18:00,  11.2, -9999,  11.7,  10.3,   8.9,   0.0,  0.09, 
 09/05/05, 19:00,  10.6, -9999,  11.5,  10.3,   8.9,   0.0,  0.00, 
 09/05/05, 20:00,   9.6, -9999,  11.3,  10.4,   8.9,   0.0,  0.00, 
 09/05/05, 21:00,   9.1, -9999,  11.1,  10.4,   8.9,   0.0,  0.00, 
 09/05/05, 22:00,   9.0, -9999,  10.9,  10.4,   8.8,   0.0,  0.00, 
 09/05/05, 23:00,   8.4, -9999,  10.7,  10.4,   8.9,   0.0,  0.00, 
 09/05/06, 00:00,   7.9, -9999,  10.5,  10.4,   8.8,   0.0,  0.00, 
 09/05/06, 01:00,   7.8, -9999,  10.3,  10.3,   9.0,   0.0,  0.00, 
 09/05/06, 02:00,   7.1, -9999,  10.2,  10.3,   9.0,   0.0,  0.00, 
 09/05/06, 03:00,   6.7, -9999,  10.0,  10.2,   8.9,   1.0,  0.00, 
 09/05/06, 04:00,   6.4, -9999,   9.8,  10.2,   8.9,   0.5,  0.00, 
 09/05/06, 05:00,   6.3, -9999,   9.7,  10.1,   8.9,   0.0,  0.00, 
 09/05/06, 06:00,   6.3, -9999,   9.5,  10.1,   9.0,   0.0,  0.05, 
 09/05/06, 07:00,   7.6, -9999,   9.5,  10.0,   8.9,   0.0,  0.51, 
 09/05/06, 08:00,   8.3, -9999,   9.6,   9.9,   8.9,   0.0,  0.59, 
 09/05/06, 09:00,   8.2, -9999,   9.7,   9.9,   9.0,   0.0,  0.35, 
 09/05/06, 10:00,   9.7, -9999,   9.8,   9.8,   9.0,   0.0,  0.47, 
 09/05/06, 11:00,   9.2, -9999,   9.9,   9.8,   9.0,   0.0,  0.64, 
 09/05/06, 12:00,   9.4, -9999,  10.0,   9.8,   9.0,   0.5,  0.41, 
 09/05/06, 13:00,   8.8, -9999,  10.1,   9.8,   9.0,   2.0,  0.50, 
 09/05/06, 14:00,   9.0, -9999,  10.2,   9.8,   8.9,   1.5,  0.62, 
 09/05/06, 15:00,   9.9, -9999,  10.4,   9.8,   8.9,   0.0,  1.26, 
 09/05/06, 16:00,  10.4, -9999,  10.6,   9.8,   8.9,   0.0,  0.90, 
 09/05/06, 17:00,  11.4, -9999,  10.8,   9.8,   8.9,   0.0,  0.87, 
 09/05/06, 18:00,   9.6, -9999,  11.0,   9.9,   9.0,   0.5,  0.14, 
 09/05/06, 19:00,   9.0, -9999,  10.9,   9.9,   8.9,   1.0,  0.00, 
 09/05/06, 20:00,   9.2, -9999,  10.8,  10.0,   8.9,   2.0,  0.00, 
 09/05/06, 21:00,   8.1, -9999,  10.5,  10.0,   8.9,   1.5,  0.00, 
 09/05/06, 22:00,   8.2, -9999,  10.3,  10.1,   8.9,   4.0,  0.00, 
 09/05/06, 23:00,   7.3, -9999,  10.1,  10.1,   8.9,   0.0,  0.00, 
 09/05/07, 00:00,   8.1, -9999,   9.9,  10.0,   9.0,   0.5,  0.00, 
 09/05/07, 01:00,   8.2, -9999,   9.8,  10.0,   9.0,   0.0,  0.00, 
 09/05/07, 02:00,   7.8, -9999,   9.7,  10.0,   9.0,   0.0,  0.00, 
 09/05/07, 03:00,   7.9, -9999,   9.6,   9.9,   9.0,   0.0,  0.00, 
 09/05/07, 04:00,   8.3, -9999,   9.5,   9.9,   9.0,   2.5,  0.00, 
 09/05/07, 05:00,   9.1, -9999,   9.4,   9.8,   9.0,   2.5,  0.00, 
 09/05/07, 06:00,   8.2, -9999,   9.3,   9.8,   9.1,   0.5,  0.00, 
 09/05/07, 07:00,   8.1, -9999,   9.2,   9.7,   9.0,   2.5,  0.01, 
 09/05/07, 08:00,   7.9, -9999,   9.2,   9.7,   9.0,   2.0,  0.13, 
 09/05/07, 09:00,   9.1, -9999,   9.2,   9.6,   9.0,   1.0,  0.34, 
 09/05/07, 10:00,   9.7, -9999,   9.4,   9.6,   9.0,   0.5,  0.62, 
 09/05/07, 11:00,  10.3, -9999,   9.6,   9.6,   9.0,   0.0,  0.89, 
 09/05/07, 12:00,  10.3, -9999,  10.0,   9.5,   9.0,   0.0,  0.72, 
 09/05/07, 13:00,  11.2, -9999,  10.2,   9.6,   9.0,   0.0,  0.57, 
 09/05/07, 14:00,  10.6, -9999,  10.3,   9.6,   9.0,   0.0,  0.41, 
 09/05/07, 15:00,  10.0, -9999,  10.4,   9.6,   9.0,   0.0,  0.20, 
 09/05/07, 16:00,   9.5, -9999,  10.4,   9.7,   9.0,   1.0,  0.15, 
 09/05/07, 17:00,  10.0, -9999,  10.4,   9.7,   9.0,   2.0,  0.23, 
 09/05/07, 18:00,   9.6, -9999,  10.4,   9.8,   9.0,   1.5,  0.02, 
 09/05/07, 19:00,   9.5, -9999,  10.3,   9.8,   9.0,   2.5,  0.00, 
 09/05/07, 20:00,   9.3, -9999,  10.2,   9.8,   9.0,   0.5,  0.00, 
 09/05/07, 21:00,   9.3, -9999,  10.1,   9.9,   9.0,   0.0,  0.00, 
 09/05/07, 22:00,   9.3, -9999,  10.1,   9.9,   9.0,   0.0,  0.00, 
 09/05/07, 23:00,   9.3, -9999,  10.0,   9.9,   9.0,   0.0,  0.00, 
 09/05/08, 00:00,   9.1, -9999,  10.0,   9.8,   9.0,   0.0,  0.00, 
 09/05/08, 01:00,   8.9, -9999,   9.9,   9.8,   9.1,   0.0,  0.00, 
 09/05/08, 02:00,   8.6, -9999,   9.8,   9.8,   9.1,   0.0,  0.00, 
 09/05/08, 03:00,   8.6, -9999,   9.8,   9.8,   9.1,   0.0,  0.00, 
 09/05/08, 04:00,   8.2, -9999,   9.7,   9.8,   9.1,   0.0,  0.00, 
 09/05/08, 05:00,   8.1, -9999,   9.7,   9.8,   9.1,   0.0,  0.00, 
 09/05/08, 06:00,   8.2, -9999,   9.6,   9.7,   9.1,   0.0,  0.00, 
 09/05/08, 07:00,   7.8, -9999,   9.6,   9.7,   9.1,   0.0,  0.21, 
 09/05/08, 08:00,   8.2, -9999,   9.6,   9.7,   9.1,   0.0,  0.41, 
 09/05/08, 09:00,   8.3, -9999,   9.7,   9.7,   9.1,   0.0,  0.60, 
 09/05/08, 10:00,   9.4, -9999,   9.9,   9.7,   9.1,   0.5,  0.73, 
 09/05/08, 11:00,   9.4, -9999,  10.1,   9.7,   9.1,   0.0,  0.66, 
 09/05/08, 12:00,  10.2, -9999,  10.4,   9.7,   9.1,   0.0,  0.95, 
 09/05/08, 13:00,   9.8, -9999,  10.6,   9.7,   9.2,   0.0,  0.36, 
 09/05/08, 14:00,   9.6, -9999,  10.6,   9.7,   9.1,   0.0,  0.31, 
 09/05/08, 15:00,   9.5, -9999,  10.6,   9.8,   9.1,   0.0,  0.30, 
 09/05/08, 16:00,   9.8, -9999,  10.6,   9.8,   9.2,   0.0,  0.39, 
 09/05/08, 17:00,   9.6, -9999,  10.6,   9.9,   9.1,   0.0,  0.10, 
 09/05/08, 18:00,   9.5, -9999,  10.6,   9.9,   9.1,   0.0,  0.06, 
 09/05/08, 19:00,   9.3, -9999,  10.5,   9.9,   9.2,   0.0,  0.00, 
 09/05/08, 20:00,   9.3, -9999,  10.4,   9.9,   9.2,   0.0,  0.00, 
 09/05/08, 21:00,   9.1, -9999,  10.4,  10.0,   9.2,   0.0,  0.00, 
 09/05/08, 22:00,   8.9, -9999,  10.2,  10.0,   9.2,   0.0,  0.00, 
 09/05/08, 23:00,   8.5, -9999,  10.2,  10.0,   9.2,   0.0,  0.00, 
 09/05/09, 00:00,   8.4, -9999,  10.0,   9.9,   9.1,   0.0,  0.00, 
 09/05/09, 01:00,   7.9, -9999,   9.9,   9.9,   9.1,   0.0,  0.00, 
 09/05/09, 02:00,   5.9, -9999,   9.8,   9.9,   9.1,   0.0,  0.00, 
 09/05/09, 03:00,   5.9, -9999,   9.5,   9.9,   9.1,   0.0,  0.00, 
 09/05/09, 04:00,   7.1, -9999,   9.3,   9.8,   9.1,   0.0,  0.00, 
 09/05/09, 05:00,   7.0, -9999,   9.0,   9.8,   9.1,   0.0,  0.00, 
 09/05/09, 06:00,   6.7, -9999,   8.9,   9.7,   9.1,   0.0,  0.11, 
 09/05/09, 07:00,  10.1, -9999,   8.7,   9.7,   9.1,   0.0,  0.70, 
 09/05/09, 08:00,  13.6, -9999,   8.9,   9.6,   9.1,   0.0,  1.50, 
 09/05/09, 09:00,  14.1, -9999,   9.7,   9.5,   9.2,   0.0,  2.25, 
 09/05/09, 10:00,  17.1, -9999,  10.5,   9.5,   9.2,   0.0,  2.81, 
 09/05/09, 11:00,  18.2, -9999,  11.7,   9.5,   9.2,   0.0,  3.29, 
 09/05/09, 12:00,  19.5, -9999,  13.3,   9.6,   9.1,   0.0,  3.52, 
 09/05/09, 13:00,  21.0, -9999,  14.6,   9.8,   9.2,   0.0,  3.48, 
 09/05/09, 14:00,  22.8, -9999,  14.8,  10.1,   9.2,   0.0,  3.20, 
 09/05/09, 15:00,  23.7, -9999,  14.8,  10.4,   9.2,   0.0,  2.82, 
 09/05/09, 16:00,  23.2, -9999,  14.8,  10.7,   9.2,   0.0,  2.16, 
 09/05/09, 17:00,  20.8, -9999,  15.2,  11.0,   9.2,   0.5,  1.38, 
 09/05/09, 18:00,  18.7, -9999,  15.1,  11.2,   9.2,   0.0,  0.64, 
 09/05/09, 19:00,  15.7, -9999,  14.8,  11.4,   9.2,   0.0,  0.11, 
 09/05/09, 20:00,  14.6, -9999,  14.4,  11.5,   9.2,   0.0,  0.00, 
 09/05/09, 21:00,  12.4, -9999,  14.0,  11.7,   9.3,   0.0,  0.00, 
 09/05/09, 22:00,  12.9, -9999,  13.6,  11.7,   9.3,   0.0,  0.00, 
 09/05/09, 23:00,  12.2, -9999,  13.2,  11.8,   9.3,   0.0,  0.00, 
 09/05/10, 00:00,  12.3, -9999,  12.7,  11.8,   9.4,   0.0,  0.00, 
 09/05/10, 01:00,  11.7, -9999,  12.4,  11.7,   9.3,   0.0,  0.00, 
 09/05/10, 02:00,  13.9, -9999,  12.1,  11.7,   9.4,   0.0,  0.00, 
 09/05/10, 03:00,  13.5, -9999,  11.8,  11.6,   9.5,   0.0,  0.00, 
 09/05/10, 04:00,  13.3, -9999,  11.6,  11.5,   9.4,   0.0,  0.00, 
 09/05/10, 05:00,  13.9, -9999,  11.4,  11.5,   9.4,   0.0,  0.00, 
 09/05/10, 06:00,  13.2, -9999,  11.3,  11.4,   9.5,   0.0,  0.09, 
 09/05/10, 07:00,  14.5, -9999,  11.0,  11.3,   9.5,   0.0,  0.59, 
 09/05/10, 08:00,  18.0, -9999,  11.3,  11.2,   9.5,   0.0,  1.54, 
 09/05/10, 09:00,  19.9, -9999,  11.9,  11.1,   9.7,   0.0,  2.29, 
 09/05/10, 10:00,  21.0, -9999,  12.6,  11.1,   9.7,   0.0,  2.92, 
 09/05/10, 11:00,  23.0, -9999,  13.9,  11.1,   9.6,   0.0,  3.38, 
 09/05/10, 12:00,  24.0, -9999,  15.4,  11.2,   9.7,   0.0,  3.68, 
 09/05/10, 13:00,  23.2, -9999,  16.6,  11.4,   9.7,   0.0,  3.16, 
 09/05/10, 14:00,  25.1, -9999,  16.8,  11.7,   9.7,   0.0,  2.95, 
 09/05/10, 15:00,  24.0, -9999,  16.8,  12.0,   9.7,   0.0,  2.50, 
 09/05/10, 16:00,  23.8, -9999,  16.7,  12.3,   9.8,   0.0,  1.84, 
 09/05/10, 17:00,  21.9, -9999,  16.8,  12.5,   9.8,   0.0,  0.90, 
 09/05/10, 18:00,  19.7, -9999,  16.6,  12.7,   9.8,   0.0,  0.32, 
 09/05/10, 19:00,  17.2, -9999,  16.2,  12.9,   9.8,   0.0,  0.08, 
 09/05/10, 20:00,  15.1, -9999,  15.7,  13.1,   9.9,   0.0,  0.00, 
 09/05/10, 21:00,  13.9, -9999,  15.3,  13.2,   9.9,   0.0,  0.00, 
 09/05/10, 22:00,  13.9, -9999,  14.8,  13.2,   9.9,   0.0,  0.00, 
 09/05/10, 23:00,  12.8, -9999,  14.4,  13.1,  10.0,   0.0,  0.00, 
 09/05/11, 00:00,  14.9, -9999,  14.0,  13.0,  10.0,   0.0,  0.00, 
 09/05/11, 01:00,  15.4, -9999,  13.7,  13.0,  10.0,   0.0,  0.00, 
 09/05/11, 02:00,  14.0, -9999,  13.3,  12.9,  10.1,   0.0,  0.00, 
 09/05/11, 03:00,  14.3, -9999,  13.0,  12.8,  10.1,   0.0,  0.00, 
 09/05/11, 04:00,  14.4, -9999,  12.6,  12.7,  10.2,   0.0,  0.00, 
 09/05/11, 05:00,  11.8, -9999,  12.3,  12.6,  10.2,   0.0,  0.00, 
 09/05/11, 06:00,  11.8, -9999,  12.1,  12.5,  10.2,   0.0,  0.03, 
 09/05/11, 07:00,  16.7, -9999,  11.8,  12.4,  10.3,   0.0,  0.70, 
 09/05/11, 08:00,  17.2, -9999,  12.0,  12.3,  10.3,   0.0,  1.66, 
 09/05/11, 09:00,  18.0, -9999,  12.5,  12.2,  10.3,   0.0,  2.14, 
 09/05/11, 10:00,  20.4, -9999,  13.3,  12.1,  10.3,   0.0,  2.90, 
 09/05/11, 11:00,  22.5, -9999,  14.3,  12.1,  10.4,   0.0,  3.23, 
 09/05/11, 12:00,  22.1, -9999,  15.5,  12.1,  10.4,   0.0,  3.21, 
 09/05/11, 13:00,  21.9, -9999,  16.5,  12.3,  10.4,   0.0,  2.86, 
 09/05/11, 14:00,  21.5, -9999,  16.7,  12.5,  10.4,   0.0,  2.42, 
 09/05/11, 15:00,  23.4, -9999,  16.6,  12.7,  10.4,   0.0,  2.32, 
 09/05/11, 16:00,  22.7, -9999,  16.5,  12.9,  10.4,   0.0,  1.53, 
 09/05/11, 17:00,  22.3, -9999,  16.6,  13.2,  10.4,   0.0,  1.55, 
 09/05/11, 18:00,  18.5, -9999,  16.5,  13.4,  10.4,   0.0,  0.47, 
 09/05/11, 19:00,  15.1, -9999,  16.2,  13.4,  10.5,   0.0,  0.08, 
 09/05/11, 20:00,  15.2, -9999,  15.8,  13.5,  10.5,   0.0,  0.00, 
 09/05/11, 21:00,  14.5, -9999,  15.3,  13.5,  10.5,   0.0,  0.00, 
 09/05/11, 22:00,  14.5, -9999,  14.9,  13.5,  10.5,   0.0,  0.00, 
 09/05/11, 23:00,  14.4, -9999,  14.5,  13.5,  10.6,   0.0,  0.00, 
 09/05/12, 00:00,  14.9, -9999,  14.1,  13.5,  10.6,   0.0,  0.00, 
 09/05/12, 01:00,  12.8, -9999,  13.7,  13.5,  10.6,   0.0,  0.00, 
 09/05/12, 02:00,  14.5, -9999,  13.4,  13.4,  10.7,   0.0,  0.00, 
 09/05/12, 03:00,  14.8, -9999,  13.1,  13.3,  10.7,   0.0,  0.00, 
 09/05/12, 04:00,  14.9, -9999,  12.8,  13.1,  10.7,   0.0,  0.00, 
 09/05/12, 05:00,  13.5, -9999,  12.6,  13.0,  10.8,   0.0,  0.00, 
 09/05/12, 06:00,  14.4, -9999,  12.4,  12.9,  10.7,   0.0,  0.08, 
 09/05/12, 07:00,  16.4, -9999,  12.3,  12.8,  10.7,   0.0,  0.71, 
 09/05/12, 08:00,  17.6, -9999,  12.5,  12.7,  10.8,   0.0,  1.28, 
 09/05/12, 09:00,  18.2, -9999,  13.0,  12.6,  10.7,   0.0,  1.91, 
 09/05/12, 10:00,  20.9, -9999,  13.6,  12.5,  10.7,   0.0,  2.57, 
 09/05/12, 11:00,  20.1, -9999,  14.4,  12.5,  10.9,   0.0,  2.27, 
 09/05/12, 12:00,  21.3, -9999,  15.1,  12.6,  10.9,   0.0,  2.33, 
 09/05/12, 13:00,  18.4, -9999,  15.6,  12.7,  10.9,   0.0,  0.83, 
 09/05/12, 14:00,  18.3, -9999,  15.6,  12.8,  10.9,   0.0,  0.83, 
 09/05/12, 15:00,  18.6, -9999,  15.6,  12.9,  10.9,   0.0,  1.00, 
 09/05/12, 16:00,  17.8, -9999,  15.5,  13.1,  10.9,   0.0,  0.65, 
 09/05/12, 17:00,  17.8, -9999,  15.4,  13.3,  10.9,   0.0,  0.33, 
 09/05/12, 18:00,  16.5, -9999,  15.3,  13.4,  10.9,   0.0,  0.10, 
 09/05/12, 19:00,  13.1, -9999,  15.0,  13.4,  10.9,   0.0,  0.00, 
 09/05/12, 20:00,  11.1, -9999,  14.7,  13.4,  10.9,   3.5,  0.00, 
 09/05/12, 21:00,  10.6, -9999,  14.4,  13.5,  10.9,   0.5,  0.00, 
 09/05/12, 22:00,  10.5, -9999,  14.1,  13.4,  11.0,   0.0,  0.00, 
 09/05/12, 23:00,  10.6, -9999,  13.8,  13.3,  11.0,   0.5,  0.00, 
 09/05/13, 00:00,  10.6, -9999,  13.6,  13.3,  11.0,   1.5,  0.00, 
 09/05/13, 01:00,  10.6, -9999,  13.4,  13.2,  11.0,   3.0,  0.00, 
 09/05/13, 02:00,  10.6, -9999,  13.2,  13.1,  10.9,   1.0,  0.00, 
 09/05/13, 03:00,  10.6, -9999,  13.0,  13.1,  11.0,   0.5,  0.00, 
 09/05/13, 04:00,  10.6, -9999,  12.8,  13.0,  11.0,   1.0,  0.00, 
 09/05/13, 05:00,  10.5, -9999,  12.7,  12.9,  11.0,   0.0,  0.00, 
 09/05/13, 06:00,  10.5, -9999,  12.7,  12.8,  11.1,   0.0,  0.00, 
 09/05/13, 07:00,  10.5, -9999,  12.6,  12.8,  11.2,   0.0,  0.05, 
 09/05/13, 08:00,  10.5, -9999,  12.5,  12.7,  11.2,   0.5,  0.13, 
 09/05/13, 09:00,  10.1, -9999,  12.5,  12.6,  11.2,   1.0,  0.30, 
 09/05/13, 10:00,   9.3, -9999,  12.5,  12.6,  11.2,   0.0,  0.54, 
 09/05/13, 11:00,  10.5, -9999,  12.6,  12.5,  11.2,   0.0,  1.68, 
 09/05/13, 12:00,  11.2, -9999,  13.1,  12.5,  11.1,   0.0,  1.78, 
 09/05/13, 13:00,  11.3, -9999,  13.7,  12.5,  11.1,   0.0,  2.56, 
 09/05/13, 14:00,  12.1, -9999,  14.0,  12.5,  11.2,   0.0,  2.59, 
 09/05/13, 15:00,  11.8, -9999,  14.1,  12.5,  11.2,   0.0,  1.51, 
 09/05/13, 16:00,  11.4, -9999,  14.2,  12.6,  11.1,   0.0,  1.84, 
 09/05/13, 17:00,  10.2, -9999,  14.4,  12.7,  11.2,   0.0,  1.65, 
 09/05/13, 18:00,   8.1, -9999,  14.3,  12.7,  11.2,   0.0,  0.83, 
 09/05/13, 19:00,   7.2, -9999,  13.9,  12.8,  11.2,   0.0,  0.19, 
 09/05/13, 20:00,   5.2, -9999,  13.3,  12.8,  11.2,   0.0,  0.00, 
 09/05/13, 21:00,   5.0, -9999,  12.7,  12.8,  11.1,   0.0,  0.00, 
 09/05/13, 22:00,   3.1, -9999,  12.2,  12.8,  11.2,   0.0,  0.00, 
 09/05/13, 23:00,   3.8, -9999,  11.7,  12.7,  11.1,   0.0,  0.00, 
 09/05/14, 00:00,   2.8, -9999,  11.2,  12.6,  11.1,   0.0,  0.00, 
 09/05/14, 01:00,   4.7, -9999,  10.8,  12.5,  11.2,   0.0,  0.00, 
 09/05/14, 02:00,   4.7, -9999,  10.4,  12.3,  11.1,   0.0,  0.00, 
 09/05/14, 03:00,   6.2, -9999,  10.0,  12.2,  11.1,   0.0,  0.00, 
 09/05/14, 04:00,   3.6, -9999,   9.7,  12.0,  11.2,   0.0,  0.00, 
 09/05/14, 05:00,   4.7, -9999,   9.4,  11.8,  11.1,   0.0,  0.00, 
 09/05/14, 06:00,   6.2, -9999,   9.2,  11.6,  11.2,   0.0,  0.01, 
 09/05/14, 07:00,   8.3, -9999,   9.2,  11.5,  11.2,   0.0,  0.25, 
 09/05/14, 08:00,   9.6, -9999,   9.3,  11.3,  11.1,   0.0,  1.61, 
 09/05/14, 09:00,  10.0, -9999,   9.9,  11.2,  11.1,   0.0,  2.40, 
 09/05/14, 10:00,  11.9, -9999,  10.6,  11.1,  11.1,   0.0,  3.03, 
 09/05/14, 11:00,  11.4, -9999,  11.6,  11.0,  11.1,   0.0,  3.17, 
 09/05/14, 12:00,  10.4, -9999,  12.5,  11.1,  11.1,   0.0,  1.10, 
 09/05/14, 13:00,  11.7, -9999,  12.8,  11.2,  11.1,   0.0,  1.20, 
 09/05/14, 14:00,  10.4, -9999,  12.8,  11.3,  11.1,   0.0,  1.54, 
 09/05/14, 15:00,  10.1, -9999,  12.7,  11.5,  11.1,   0.0,  2.65, 
 09/05/14, 16:00,   7.4, -9999,  12.6,  11.6,  11.1,   0.0,  2.28, 
 09/05/14, 17:00,   6.7, -9999,  12.7,  11.7,  11.0,   0.0,  1.69, 
 09/05/14, 18:00,   5.4, -9999,  12.4,  11.7,  10.9,   0.0,  0.93, 
 09/05/14, 19:00,   4.2, -9999,  12.0,  11.8,  11.0,   0.0,  0.19, 
 09/05/14, 20:00,   3.4, -9999,  11.4,  11.8,  11.0,   0.0,  0.00, 
 09/05/14, 21:00,   2.6, -9999,  10.9,  11.7,  11.0,   0.0,  0.00, 
 09/05/14, 22:00,   1.6, -9999,  10.5,  11.7,  11.0,   0.0,  0.00, 
 09/05/14, 23:00,   1.3, -9999,  10.2,  11.6,  11.0,   0.0,  0.00, 
 09/05/15, 00:00,   1.7, -9999,   9.7,  11.5,  11.0,   0.0,  0.00, 
 09/05/15, 01:00,   1.9, -9999,   9.4,  11.3,  10.9,   0.0,  0.00, 
 09/05/15, 02:00,   1.7, -9999,   9.3,  11.2,  10.9,   0.0,  0.00, 
 09/05/15, 03:00,   0.4, -9999,   9.1,  11.1,  10.9,   0.0,  0.00, 
 09/05/15, 04:00,  -0.5, -9999,   8.8,  10.9,  10.9,   0.0,  0.00, 
 09/05/15, 05:00,  -1.2, -9999,   8.6,  10.8,  10.9,   0.0,  0.00, 
 09/05/15, 06:00,   0.1, -9999,   8.3,  10.7,  10.8,   0.0,  0.15, 
 09/05/15, 07:00,   2.2, -9999,   8.2,  10.6,  10.8,   0.0,  0.91, 
 09/05/15, 08:00,   3.3, -9999,   8.2,  10.4,  10.9,   0.0,  1.41, 
 09/05/15, 09:00,   5.5, -9999,   8.6,  10.3,  10.8,   0.0,  1.86, 
 09/05/15, 10:00,   7.5, -9999,   9.1,  10.2,  10.8,   0.0,  2.16, 
 09/05/15, 11:00,  10.8, -9999,   9.8,  10.1,  10.7,   0.0,  2.79, 
 09/05/15, 12:00,  10.9, -9999,  10.9,  10.1,  10.7,   0.0,  3.13, 
 09/05/15, 13:00,  12.3, -9999,  11.8,  10.2,  10.8,   0.0,  2.78, 
 09/05/15, 14:00,  14.4, -9999,  12.2,  10.3,  10.8,   0.0,  3.43, 